Terminal Aerodrome Forecast
Issued by NWS

Home | Current Version | Previous Version | Text Only | Print | Product List | Glossary On
Versions: 1 2 3 4 5 6 7 8 9 10 11 12 13 14 15 16 17
000
FTUS44 KMAF 021100
TAFHOB
TAF
KHOB 021120Z 0212/0312 25009KT P6SM SKC
     FM021300 34014G20KT P6SM SKC
     FM030100 04006KT P6SM SKC=

USA.gov is the U.S. government's official web portal to all federal, state and local government web resources and services.